Starlink 31463

operational
NORAD ID: 59296 Int'l Des: 2024-056 Owner: SPXS Country: US Constellation: starlink
LEOCIRCULAR

About Starlink 31463

Description loading...

Live Position

Loading 3D Globe...

Upcoming Passes

Altitude History

Altitude vs Time

uPlot chart will show altitude changes over time

Two-Line Element Set

1 59296U 24056A 25350.28019185 -.00000047 00000-0 78067-5 0 9992
2 59296 43.0035 337.8144 0000759 236.4271 123.6508 15.27590504 98442
Epoch: Dec 16, 2025 • Age: 22 hours

Current Status

Altitude 495.8 km
Velocity 7.62 km/s
Sub-Earth Point -42.93°S, 85.25°E
Launch Date Mar 24, 2024
Age 1.7 years
Type internet

Technical Details

Classification Payload
Mass 730.00 kg
Dry Mass 700.00 kg
Total Mass 730.00 kg
Length 0.30 m
Diameter 4.10 m
Span 29.00 m
Shape Box + pan
Manufacturer SPXS
Bus Type Starlink V2M
Phase Status In Orbit
Owner/State SPXS/US

Large Constellations

Loading constellations...